Location: Mitty Observatory
(35.9148°N, 88.8847°W)
Time: 04:10:29
(UTC-06:00)

LightSail 2 - Pass Details

Date: 28 January 2021
Orbit: 688 x 705 km, 24.0° (Epoch: 09 March)

Event Time Altitude Azimuth Distance (km) Brightness Sun altitude
Exits shadow 04:04:12 13° 141° (SE) 1,915 7.7 -35.4°
Drops below altitude 10° 04:05:13 10° 130° (SE) 2,125 8.1 -35.2°
Sets 04:08:23 0° 110° (ESE) 3,039 9.3 -34.6°
